Regional Weather Roundup
Issued by NWS Northern Indiana

Home | Current Version | Previous Version | Graphics & Text | Print | Product List | Glossary On
Versions: 1 2 3 4 5 6 7 8 9 10 11 12 13 14 15 16 17 18 19 20 21 22 23 24 25 26 27 28 29 30 31 32 33 34 35 36 37 38 39 40 41 42 43 44 45 46 47 48 49 50
000
ASUS43 KIWX 260800
RWRIWX

KIWX WEATHER ROUNDUP
NATIONAL WEATHER SERVICE NORTHERN INDIANA
300 AM EST MON JAN 26 2015

NOTE: "FAIR" INDICATES FEW OR NO CLOUDS BELOW 12,000 FEET WITH NO
SIGNIFICANT WEATHER AND/OR OBSTRUCTIONS TO VISIBILITY.

* THESE STATIONS ARE NOT UNDER NWS QUALITY CONTROL. THEY ALSO MAY NOT
  REPORT WEATHER SUCH AS PRECIPITATION OR FOG.

INZ001>027-260900-
NORTHERN INDIANA

CITY           SKY/WX    TMP DP  RH WIND       PRES   REMARKS
SOUTH BEND     CLEAR     15   8  73 NE3       29.97R
GOSHEN         CLEAR     14   7  73 NE8       29.94S WCI   3
ANGOLA*        CLEAR     12   7  79 N5        29.91R WCI   4
FORT WAYNE     CLOUDY    19  10  68 NE10      29.92R WCI   7

$$
INZ028>050-260900-
CENTRAL INDIANA

CITY           SKY/WX    TMP DP  RH WIND       PRES   REMARKS
LAFAYETTE      CLOUDY    24  18  77 N6        29.95R WCI  17
KOKOMO*        CLOUDY    21  10  63 NE14G20   29.92R WCI   8
MUNCIE*        CLOUDY    19  14  81 NE15      29.87R WCI   5
INDIANAPOLIS   CLOUDY    19  16  88 NE17G24   29.87S WCI   4

$$
MIZ043>046-050>051-056>058-064>065-071>073-077>080-260900-
SOUTHWEST LOWER MICHIGAN

CITY           SKY/WX    TMP DP  RH WIND       PRES   REMARKS
BATTLE CREEK   CLEAR     15   8  73 NE7       29.95S WCI   5
BENTON HARBOR  CLEAR     14   8  77 E6        29.99R WCI   5
COLDWATER*     CLEAR     13   8  81 NE7       29.93S WCI   3
HILLSDALE*     CLEAR     13   9  81 N7        29.90S WCI   3
HOLLAND        PTCLDY    14   8  77 CALM      30.00R
GRAND RAPIDS   CLEAR     12   7  80 NE7       29.98S WCI   1
KALAMAZOO      CLEAR     13   7  77 NE5       29.96S WCI   5
STURGIS*       CLEAR     12   9  85 NE6       29.93S WCI   3
THREE RIVERS*  FAIR      15   9  77 NE5       29.96S WCI   7

$$
OHZ001>008-015>018-024>025-260900-
NORTHWEST OHIO

CITY           SKY/WX    TMP DP  RH WIND       PRES   REMARKS
DEFIANCE       CLOUDY    19   7  59 NE13      29.92R WCI   6
FINDLAY        LGT SNOW  18  13  80 NE17      29.86R WCI   3
TOLEDO EXPRESS CLOUDY    17   5  59 NE12      29.91S WCI   4
TOLEDO METCALF CLOUDY    17   6  62 NE12G22   29.92S WCI   4
LIMA           LGT SNOW  17  12  80 N15       29.83S WCI   2

$$
AND FOR LAKE MICHIGAN COASTAL AND OPEN LAKE BUOY OBSERVATIONS

STATION/POSITION TEMP    WIND        PRES    VSBY  WAVE
                 AIR SEA DIR/SP/G                  HT/PER
                 (F)     (DEG/KT/KT) (MB)    (MI)  (FT/S)
CALUMET HARBOR    24      20/ 10/ 14   N/A
MICHIGAN CITY     20      40/ 15/ 18   N/A
SAINT JOSEPH      16      20/  2/  7 1015.2F

$$
&&



USA.gov is the U.S. government's official web portal to all federal, state and local government web resources and services.